Wind_Speed
6 7 7 7 9 11 10 6 5 5 5 7 9 9 9 10 11 11 12 11 6 3 5 9 8 3 5 7 9 9 6 4 4 3 2 5 18 22 21 28 29 23 21 20 20 18 16 16 16 16 15 14 14 16 19 20 20 19 20 20 19 19 19 20 21 21 21 22 22 21 21 20 20 20 20 19 19 19 19 19 20 18 19 19 17 17 17 17 17 17 17 17 18 18 18 17 16
7 10 10 10 10 9 5 4 6 6 6 8 9 9 9 10 11 12 12 11 7 6 12 9 6 5 8 12 11 9 7 8 9 7 5 16 23 20 25 28 28 27 22 21 21 18 16 16 17 17 16 15 15 17 19 19 19 19 19 19 19 19 19 19 20 20 21 21 22 21 21 21 21 20 20 19 18 18 17 18 18 17 18 18 18 18 17 17 17 17 17 17 17 17 17 16 16
9 12 12 10 9 8 5 4 7 7 7 8 7 9 10 10 11 11 9 10 5 6 11 7 4 3 4 11 7 6 7 8 11 8 7 17 17 16 27 26 25 25 22 21 18 18 16 16 17 17 16 15 17 18 18 18 17 18 19 18 18 18 18 18 19 19 20 21 22 21 22 22 22 21 20 19 17 17 16 16 16 17 16 17 18 17 17 17 17 17 16 16 16 16 16 15 17
10 11 12 10 7 7 6 6 7 7 8 7 7 10 10 9 10 8 10 7 3 3 2 6 6 4 5 6 4 5 7 5 8 8 6 10 12 20 27 24 25 23 21 20 17 18 16 17 18 17 17 16 17 17 17 17 16 17 17 17 17 17 17 18 18 19 20 21 21 21 21 21 20 20 20 19 17 17 16 15 15 15 16 16 18 18 17 17 17 16 15 16 16 15 15 15 19
10 12 13 11 6 5 5 6 6 7 8 8 7 9 8 7 8 8 14 5 8 4 4 8 7 5 9 10 6 3 4 5 11 15 10 11 15 21 22 21 23 22 20 19 17 17 16 19 19 18 18 17 17 17 17 17 16 16 16 17 17 18 18 19 19 20 21 21 20 20 20 19 19 18 19 18 17 16 15 14 14 14 15 15 16 17 16 16 16 16 15 15 15 15 14 17 21
11 12 13 11 6 5 5 6 7 8 9 10 9 9 8 7 10 9 12 4 7 5 2 11 6 7 10 11 11 6 3 2 9 15 12 14 17 17 18 20 23 24 23 21 19 18 19 20 20 19 19 18 19 18 18 18 17 18 18 19 18 19 19 19 20 20 20 21 20 19 19 18 18 18 17 17 16 15 14 14 13 13 14 14 15 16 16 16 16 15 15 15 14 15 15 18 21
12 9 8 8 6 6 7 8 8 8 9 12 11 12 10 6 9 9 9 6 1 6 3 12 9 9 8 8 10 9 9 10 10 11 15 17 19 19 20 23 25 27 26 23 19 20 22 22 22 21 20 19 19 20 19 19 20 20 20 19 19 18 18 18 19 19 19 19 19 18 18 17 17 17 17 16 16 15 14 14 13 13 14 14 14 15 15 15 16 15 15 15 14 15 16 19 19
14 8 4 6 6 5 7 8 8 8 10 12 12 14 12 6 5 7 6 7 6 4 7 11 9 8 11 13 6 6 13 19 20 22 24 23 23 26 26 27 27 26 24 22 20 21 22 23 22 21 21 20 20 21 20 21 21 20 20 18 18 17 17 18 18 18 18 18 17 17 16 17 17 17 16 15 15 14 14 14 14 13 14 15 14 15 15 15 15 15 15 15 15 16 17 19 19
12 8 5 6 7 6 8 8 9 10 11 13 13 13 13 8 5 7 6 8 9 3 13 11 6 8 13 16 6 3 14 18 22 25 25 26 26 30 29 27 27 25 23 22 22 22 22 22 21 21 21 20 21 22 22 23 21 20 19 17 17 17 17 18 18 18 17 17 16 16 16 16 17 16 16 15 14 14 14 13 13 13 14 15 15 15 15 15 15 16 15 15 15 16 18 19 18
8 7 6 5 6 7 8 8 9 9 11 13 13 11 11 10 8 8 8 10 7 3 11 9 8 13 14 13 7 5 11 14 21 23 24 27 27 31 27 25 27 25 24 22 23 23 22 21 20 20 18 19 21 22 23 22 20 19 18 17 16 17 17 17 17 17 16 15 15 15 15 16 16 16 16 15 13 13 14 13 12 13 15 15 15 15 15 15 15 15 15 15 15 17 19 19 18
6 6 6 6 6 7 8 7 8 9 11 12 13 12 10 9 8 8 10 11 4 8 5 6 7 13 18 12 6 7 11 13 17 20 25 28 29 31 27 25 26 25 25 24 24 21 20 20 18 17 17 19 20 21 21 19 18 18 17 16 15 15 16 16 15 15 15 14 14 14 14 15 15 15 15 14 13 13 13 12 13 15 15 15 15 15 15 15 15 15 15 15 15 17 19 18 18
6 6 6 6 6 6 8 8 8 9 12 12 12 11 7 6 6 8 10 5 7 9 7 8 3 6 15 10 4 8 16 11 8 14 24 27 27 29 28 27 27 25 24 24 23 21 19 18 16 15 15 19 20 19 17 16 17 16 16 15 14 14 14 14 14 14 14 13 13 13 13 14 14 15 16 14 12 12 12 12 14 15 14 15 15 15 15 15 15 15 15 15 15 17 19 18 18
7 7 6 6 7 7 8 8 8 9 11 9 10 9 5 5 8 10 9 2 7 6 8 6 3 11 13 7 4 7 14 11 8 11 18 22 22 25 28 29 27 24 22 22 21 20 19 17 15 13 15 19 18 17 14 14 15 15 15 15 14 14 14 13 13 13 12 12 12 13 13 13 14 17 16 13 11 11 12 14 14 14 14 15 15 15 15 15 15 15 15 15 15 16 18 18 18
6 6 6 6 7 8 8 8 9 9 8 6 6 6 1 2 7 5 3 3 7 6 9 9 9 19 12 5 6 4 10 16 17 13 10 14 16 20 26 28 27 24 21 20 20 18 17 16 14 12 13 17 17 15 14 13 14 14 15 14 14 14 14 13 12 12 12 11 12 12 13 13 14 17 16 12 11 11 13 15 14 14 14 15 15 15 15 14 14 14 15 14 15 15 17 18 18
7 6 5 6 6 8 8 8 9 8 7 5 1 3 3 4 2 8 7 5 6 6 12 16 16 14 8 6 6 7 15 22 20 16 10 9 13 15 19 23 23 22 20 18 18 16 16 16 16 13 13 16 17 15 14 14 13 14 14 14 14 14 14 13 12 12 11 11 11 12 13 13 14 16 15 12 11 11 14 16 15 14 15 15 15 15 14 14 14 14 14 14 15 16 18 19 19
6 6 6 6 7 7 8 7 9 9 4 2 1 2 4 7 5 11 6 4 7 10 15 17 15 12 11 11 9 11 19 24 19 18 16 11 12 12 12 16 19 20 20 18 16 15 17 18 19 18 16 17 17 15 14 14 14 14 14 14 14 15 14 13 13 12 12 11 11 12 13 13 14 14 13 12 12 12 14 15 15 15 14 14 15 14 14 13 13 13 15 17 18 20 23 23 21
6 6 6 6 7 8 7 8 7 7 2 1 5 2 6 9 7 11 8 9 10 17 20 16 14 14 13 12 14 15 18 21 19 18 19 14 12 13 11 12 17 18 17 17 17 16 18 18 20 21 20 19 17 15 15 14 15 15 14 14 14 14 14 13 13 12 12 11 11 12 13 13 14 14 14 14 14 13 14 16 15 15 14 14 14 14 13 13 13 13 16 21 23 24 25 24 21
6 5 6 6 7 7 8 10 6 5 5 3 6 5 7 7 6 7 9 12 11 19 20 17 16 14 13 14 18 19 18 18 18 18 17 16 15 15 13 13 15 14 12 14 17 18 19 19 20 21 20 19 18 16 15 14 16 15 14 15 14 14 14 13 13 12 12 12 12 11 11 13 15 14 13 13 13 14 15 16 15 15 14 14 14 14 13 12 12 11 14 18 22 24 24 22 20
6 5 6 6 7 10 7 9 5 2 7 6 8 7 6 2 7 3 5 8 9 14 16 17 16 14 13 14 18 19 18 17 16 17 16 15 16 15 13 13 13 11 11 14 18 18 20 21 21 21 19 18 18 17 15 16 16 16 15 15 14 14 14 13 12 12 11 10 11 12 11 12 13 12 12 13 12 15 16 15 15 14 14 14 14 13 12 12 11 10 11 13 15 17 18 17 17
7 6 6 6 9 12 4 5 6 4 8 9 10 8 2 8 7 2 3 7 9 10 12 16 14 13 11 12 17 18 19 19 16 14 13 12 14 15 14 14 14 13 12 16 20 20 20 22 21 20 18 16 17 17 15 16 17 16 16 15 15 15 14 14 12 12 12 10 9 12 12 12 13 13 13 14 13 15 16 15 14 14 14 14 14 13 12 11 11 10 10 11 12 13 12 11 9
6 6 7 8 9 10 3 4 6 5 8 10 13 6 8 13 9 4 1 5 8 8 9 16 17 15 11 9 10 12 15 17 17 14 11 11 13 14 14 14 15 16 13 15 21 21 20 21 21 20 18 16 15 16 16 17 19 16 16 16 16 17 16 16 14 14 15 12 10 11 13 13 15 15 14 14 13 15 16 15 15 14 14 14 14 13 12 12 11 10 8 9 10 9 8 8 7
5 6 9 10 9 9 5 6 6 3 6 12 13 4 11 11 6 9 9 4 4 8 11 16 20 17 12 10 6 7 11 12 14 15 10 10 12 12 13 11 12 14 11 12 20 21 19 19 21 20 17 17 15 14 15 17 18 15 16 17 16 16 15 15 15 15 15 13 10 9 12 13 13 15 15 13 13 14 14 15 14 13 13 13 13 11 10 10 10 9 6 6 7 7 5 4 6
5 6 8 9 9 8 4 5 2 3 8 12 5 3 7 10 6 8 11 9 9 9 12 14 18 17 12 11 6 5 9 10 10 16 13 11 12 14 15 13 10 11 9 13 20 17 17 19 20 19 16 14 12 13 13 14 15 14 16 16 15 15 14 15 15 13 12 11 10 9 12 14 13 14 15 13 13 13 13 13 12 11 11 11 11 11 10 9 9 10 9 6 6 7 7 7 7
5 7 7 7 11 9 2 4 4 2 9 10 4 2 6 11 7 7 10 8 9 10 8 13 19 18 10 8 7 4 8 10 7 14 17 13 14 17 17 16 13 11 11 15 17 14 17 18 17 17 17 15 12 12 11 11 14 13 15 16 14 15 15 13 13 12 10 9 9 9 11 13 12 14 15 14 13 13 12 12 12 11 12 11 11 12 10 10 9 9 9 8 8 9 9 8 8
4 11 10 7 12 11 4 4 7 6 8 8 8 4 11 13 5 7 7 7 7 7 8 13 20 18 8 4 6 1 4 8 5 6 13 13 15 18 19 18 16 13 12 14 13 11 15 15 15 16 15 14 11 10 5 5 11 12 14 14 11 13 13 11 11 12 11 9 10 8 7 10 11 12 14 14 13 13 12 13 13 11 12 11 9 11 9 9 9 8 8 8 9 9 9 9 9
6 14 12 5 10 11 8 7 8 8 7 7 9 3 14 13 8 7 6 7 5 4 10 12 17 18 10 5 4 0 2 5 7 7 10 12 13 15 16 17 16 14 12 12 11 9 10 12 15 17 15 13 14 14 10 8 12 12 12 11 9 11 9 9 9 9 10 9 9 9 7 8 9 10 12 12 12 12 11 12 12 10 10 9 8 10 8 8 9 8 8 9 9 9 9 9 9
4 11 9 7 8 7 9 9 9 9 7 8 10 2 13 13 8 4 6 9 4 4 11 10 14 18 13 10 6 4 3 2 4 10 11 11 14 16 16 13 13 15 14 14 12 10 11 13 15 17 15 13 14 16 15 15 16 14 13 10 9 9 6 6 6 8 10 10 9 9 8 7 7 7 8 9 11 11 9 9 9 9 9 8 8 8 7 7 8 7 8 8 9 9 8 8 8
4 10 7 7 10 10 11 10 9 8 6 9 10 3 13 12 7 7 9 10 7 6 9 8 11 16 14 12 8 6 5 1 7 4 8 8 14 21 21 18 18 17 16 16 16 15 16 17 16 15 13 12 11 11 13 15 15 14 12 11 11 10 8 8 9 10 12 12 11 9 7 8 5 4 6 6 9 9 9 9 8 8 8 7 7 7 7 7 7 7 7 7 7 8 8 8 8
5 10 8 9 11 12 12 9 9 8 8 9 6 6 9 11 8 11 12 11 10 9 9 9 11 12 11 11 8 5 10 9 8 7 12 14 14 18 19 20 23 21 19 19 19 20 21 20 18 16 15 15 13 13 15 15 14 13 11 12 15 13 12 12 10 9 9 9 11 9 7 8 6 5 5 4 7 8 7 8 8 7 7 7 7 7 7 7 7 6 6 5 6 6 6 7 7
8 9 7 10 9 10 11 10 11 11 8 4 2 6 3 11 12 11 11 11 12 11 10 10 9 8 7 7 6 5 10 11 11 14 19 23 23 23 22 20 20 20 20 21 20 21 22 22 22 19 18 17 16 15 17 17 17 15 11 11 13 13 14 13 9 6 6 8 10 9 7 7 5 5 5 3 4 6 6 7 6 6 6 6 7 6 6 7 7 7 6 5 5 5 5 6 6
8 9 7 8 7 8 11 12 12 11 5 1 2 6 3 12 13 12 11 11 12 11 10 10 8 7 6 4 4 5 9 12 13 10 10 14 18 20 23 22 21 22 21 21 21 21 21 21 22 20 18 17 16 17 17 17 18 14 10 11 12 11 12 11 8 6 6 7 8 7 6 6 5 5 5 4 4 4 6 6 5 5 5 5 5 6 5 4 6 7 6 5 4 4 4 5 6
6 8 7 7 7 8 10 13 12 10 6 6 6 7 3 12 14 13 12 11 11 10 8 8 8 6 5 4 4 4 7 10 10 9 9 10 13 14 16 16 19 23 24 24 22 20 18 18 19 19 18 16 15 17 16 14 14 12 9 11 12 12 11 9 7 7 6 7 7 6 7 7 7 6 4 5 6 5 4 6 6 5 4 2 4 6 4 1 3 7 7 5 4 4 4 3 5
6 7 6 7 7 7 7 8 10 9 7 7 9 7 5 9 14 13 14 13 11 9 7 8 7 6 5 3 3 4 6 6 7 11 11 10 11 14 14 14 15 17 21 24 21 18 16 15 15 16 14 13 13 14 13 12 11 10 8 9 11 13 12 9 7 6 7 6 5 5 7 8 7 7 6 6 8 7 5 5 6 7 6 4 4 4 3 2 2 4 7 6 4 5 5 4 6
5 6 7 7 7 7 5 5 8 9 8 9 10 8 6 8 15 13 14 15 12 10 8 8 8 7 5 3 3 6 7 6 7 10 12 11 12 14 14 14 14 13 16 19 19 17 17 15 14 14 13 11 11 10 10 11 10 9 9 8 9 11 11 10 8 6 7 6 4 4 6 8 8 8 9 8 8 8 7 6 5 6 7 7 6 4 3 5 5 2 4 6 4 4 6 7 7
5 4 5 7 7 8 7 4 7 11 10 11 11 9 7 8 17 14 13 14 13 12 10 8 8 6 5 5 7 8 7 7 6 9 11 12 12 13 14 14 14 12 14 17 17 17 17 15 14 13 12 11 10 10 10 10 9 9 8 7 7 8 9 10 9 6 6 6 5 4 4 6 9 11 11 10 9 9 9 8 6 5 6 7 6 5 3 4 5 3 3 5 5 5 7 8 9
7 6 7 7 7 7 7 8 7 8 7 9 10 9 10 8 14 18 16 14 13 13 12 9 8 7 6 6 6 8 7 6 5 8 9 9 10 12 13 14 14 13 14 15 15 15 15 14 14 13 12 11 10 10 9 8 7 7 7 6 6 7 8 9 9 7 8 8 7 6 6 6 7 10 10 11 11 11 11 10 8 6 6 6 4 5 3 1 3 5 6 7 6 7 7 9 10
8 8 9 6 6 7 7 9 7 3 3 8 9 9 12 12 10 16 20 17 15 16 14 11 10 8 7 6 6 7 7 6 5 6 6 6 8 10 12 13 15 15 13 14 15 14 14 13 13 13 12 11 11 10 9 9 8 7 8 7 6 7 7 8 8 8 9 9 8 8 8 8 8 9 9 10 11 12 13 12 11 8 7 7 6 7 6 4 3 7 8 8 7 9 11 9 10
8 8 8 7 7 7 7 6 5 4 3 6 9 12 12 13 13 10 18 19 16 18 16 14 14 11 9 8 7 7 7 6 5 5 5 5 6 8 10 12 14 14 14 14 14 14 13 13 12 11 11 10 10 10 10 10 9 9 9 8 7 7 7 8 8 8 9 8 8 8 7 8 9 10 10 10 10 11 13 13 13 11 9 9 9 8 8 6 6 7 7 8 8 10 15 13 10
8 8 6 7 8 7 8 7 6 6 3 5 10 12 11 13 16 12 13 18 16 17 17 15 15 12 10 8 7 5 6 6 5 5 6 7 7 8 8 10 12 13 13 13 13 13 12 12 12 11 11 9 8 8 8 9 9 9 9 8 7 7 7 7 7 6 8 10 10 9 9 10 9 10 10 11 11 11 12 13 14 13 12 11 10 10 10 7 6 8 8 8 8 10 17 19 15
7 7 6 7 8 7 7 7 7 8 7 9 12 11 9 12 13 14 12 13 17 17 17 16 15 13 11 10 6 3 3 6 6 7 8 8 8 8 8 10 11 12 12 12 12 12 11 11 11 11 10 9 8 7 7 7 6 6 7 8 7 7 7 6 7 7 8 10 11 11 12 12 11 10 10 11 12 12 12 13 14 14 14 12 11 11 11 9 6 7 9 11 10 6 12 18 16
7 8 8 7 8 10 8 7 10 10 9 10 12 11 8 10 13 14 9 10 17 16 16 14 11 12 10 8 9 6 4 4 3 5 7 9 9 9 9 9 11 12 12 12 11 11 11 10 10 9 9 8 8 8 7 7 5 5 5 6 6 7 7 7 9 10 10 11 13 14 14 14 13 12 11 12 12 12 12 13 14 13 14 14 13 13 12 10 7 7 9 12 12 9 7 11 14
5 7 8 8 9 11 10 9 10 8 7 8 9 9 6 8 13 12 5 10 18 14 13 13 7 8 8 5 8 9 8 5 2 7 8 9 9 9 10 9 10 11 11 11 10 10 11 10 9 9 8 7 6 6 6 6 6 6 6 7 8 8 8 9 11 11 12 13 14 14 14 15 15 14 13 13 12 13 13 13 13 14 16 16 15 14 11 10 9 7 10 13 12 12 11 11 15
5 4 3 8 12 12 10 8 8 7 7 7 8 8 7 8 10 10 10 3 15 14 10 9 5 4 4 5 5 5 7 8 8 12 9 8 9 10 10 10 10 10 10 10 10 10 11 10 8 8 7 7 6 5 4 5 5 6 6 6 7 7 8 9 10 11 11 12 13 14 14 15 14 13 14 14 13 13 14 14 14 14 17 18 17 16 13 11 11 9 9 13 14 13 12 13 15
7 7 5 8 11 11 11 8 8 8 8 9 10 10 8 8 9 9 13 11 11 16 13 12 8 4 7 5 6 3 5 7 11 11 8 7 9 10 11 11 11 11 11 11 11 11 10 9 8 7 6 6 5 4 4 4 3 4 5 5 6 7 7 7 7 8 9 11 11 13 15 15 15 14 14 14 14 13 14 15 16 15 17 18 18 17 16 13 13 11 10 12 14 15 15 15 15
6 8 11 12 10 8 10 9 9 8 8 8 9 11 9 7 8 8 11 13 7 14 14 13 12 12 13 9 9 7 5 8 11 10 8 8 9 10 11 12 12 11 11 11 11 11 10 8 8 6 6 5 4 4 4 4 4 3 4 4 5 6 7 7 7 7 9 10 10 11 13 14 16 16 15 15 15 14 14 14 15 16 16 18 19 19 18 16 14 14 14 14 15 17 17 16 16
3 6 11 12 10 9 9 9 9 8 8 9 10 10 8 6 8 7 7 9 2 8 9 8 8 10 12 13 13 12 9 12 13 10 10 10 10 10 11 12 13 12 11 11 11 10 9 8 7 6 6 5 4 4 4 4 4 5 5 5 6 6 6 6 7 7 8 10 12 12 13 14 15 16 16 16 15 15 16 15 15 16 15 16 18 20 20 18 16 16 16 16 16 18 19 17 17
9 8 10 10 9 9 8 7 8 7 6 8 12 12 10 9 7 5 6 5 2 5 7 8 8 8 7 9 12 13 13 13 11 9 10 12 11 11 11 11 12 12 12 12 11 10 9 8 7 6 6 4 3 4 4 4 5 6 6 7 7 7 7 7 8 9 9 10 12 13 13 13 14 15 15 15 16 16 17 16 15 16 16 15 16 18 20 19 17 17 18 17 18 19 19 19 19
8 7 7 8 7 7 7 6 6 6 6 7 10 10 10 9 5 6 7 6 5 4 8 9 10 11 9 8 11 13 12 11 10 9 9 11 11 11 11 10 10 11 12 12 11 11 10 9 8 7 7 5 3 3 4 4 4 5 6 7 7 7 7 7 8 10 10 10 11 12 12 12 13 14 15 15 16 16 17 18 17 16 16 16 16 17 18 18 17 18 19 19 18 19 20 20 20
7 7 6 6 6 5 5 6 5 6 6 6 9 8 7 7 5 10 10 9 8 5 8 9 9 11 11 11 12 12 11 11 10 8 8 9 8 9 11 10 10 10 11 12 12 12 10 9 8 7 8 7 5 4 4 4 5 5 6 6 6 7 7 8 9 10 10 10 11 11 11 11 12 13 14 16 16 15 16 18 18 17 16 17 18 18 18 17 16 17 20 21 20 20 21 22 22
5 6 5 5 6 5 6 6 5 7 5 4 10 10 7 6 3 8 10 4 8 7 6 9 12 12 11 12 12 11 11 11 10 8 8 7 5 9 11 11 11 11 11 12 12 12 11 10 9 7 6 6 5 5 4 4 5 5 5 6 6 6 6 7 8 9 10 11 11 11 11 11 13 13 13 15 16 15 15 15 17 19 18 18 18 19 19 17 17 17 19 22 23 21 22 23 24
6 6 6 5 6 5 6 5 4 7 6 5 7 6 5 4 2 3 6 6 1 6 6 5 10 13 11 10 11 10 10 10 9 7 8 7 7 9 10 11 12 12 13 13 12 12 11 10 10 8 6 6 6 5 5 5 5 5 5 5 5 5 6 6 7 8 9 10 11 11 12 11 12 13 13 14 15 16 16 15 17 18 19 19 19 18 19 19 19 19 19 21 24 24 23 25 26
5 6 6 6 5 4 5 7 7 8 7 6 7 5 4 3 5 4 1 3 1 3 5 3 5 9 8 7 8 9 10 10 8 7 7 7 7 9 9 10 10 12 14 14 12 12 12 10 8 7 6 6 5 5 5 5 5 5 4 4 4 5 5 6 6 7 8 9 10 11 12 12 12 12 12 12 14 15 16 16 17 18 19 20 21 20 20 21 21 20 19 20 23 25 24 25 27
2 4 5 4 4 5 5 6 6 6 6 6 5 6 7 4 5 1 3 4 5 4 5 5 4 6 6 6 6 9 11 11 9 8 8 8 7 7 7 7 9 11 13 15 14 12 11 9 7 7 6 5 5 6 6 6 5 5 5 4 4 4 5 6 6 7 8 9 10 11 11 12 12 12 12 12 13 15 16 17 17 18 19 20 23 24 23 23 23 22 21 20 22 24 26 28 28
5 4 3 3 4 6 5 5 5 5 7 5 6 8 6 4 2 3 7 3 6 7 8 8 7 8 9 8 7 8 9 10 11 10 9 10 10 9 8 10 11 12 16 18 15 13 12 9 7 7 7 6 6 6 6 6 5 5 5 4 4 4 5 6 6 7 8 9 10 11 12 12 12 12 13 13 14 14 16 17 17 18 18 20 23 25 25 25 25 24 23 22 22 25 29 31 30
10 7 4 3 4 4 3 4 4 5 7 5 7 9 5 2 2 1 4 4 2 5 7 5 6 8 8 8 8 10 9 9 10 9 9 9 10 11 13 13 11 14 23 21 17 15 12 8 6 6 6 5 6 5 5 6 5 5 4 4 4 4 5 5 6 6 7 7 8 10 11 12 12 13 14 14 14 14 16 17 18 19 19 19 20 23 24 25 26 26 25 24 24 26 32 34 33
9 7 7 5 5 5 4 4 3 4 6 6 7 7 3 1 1 2 3 3 2 6 5 3 5 5 2 3 5 8 9 8 8 7 8 9 9 11 14 13 14 21 28 21 16 14 10 10 9 7 6 6 5 5 5 6 5 5 4 4 4 5 5 5 5 6 6 7 8 9 10 11 10 11 12 13 14 16 16 17 17 18 19 18 19 21 22 23 25 27 27 27 26 27 32 36 35
6 5 6 5 4 5 4 4 5 5 5 6 6 5 1 3 3 3 3 2 4 6 6 5 5 5 5 4 5 6 6 8 8 7 8 8 8 10 11 14 20 27 25 18 15 13 10 13 12 8 7 7 6 7 9 8 6 4 3 4 4 5 6 6 6 6 7 7 8 8 8 10 10 9 10 11 13 14 15 16 17 18 18 17 18 20 21 22 23 25 27 28 26 27 32 36 35
4 5 5 5 5 4 4 5 6 5 5 6 6 6 3 3 4 5 5 5 5 6 7 7 7 7 7 5 4 3 2 5 6 7 9 9 10 12 14 17 22 22 18 15 14 12 10 10 9 8 8 9 9 11 11 8 5 2 2 3 4 5 6 6 6 7 8 7 7 7 7 8 9 10 10 10 11 13 14 14 15 17 17 17 18 19 19 20 22 24 27 28 26 27 32 34 34
Wind_Direction
262 280 280 272 262 267 263 239 253 243 237 254 254 257 255 256 263 272 262 260 294 349 48 64 60 79 117 93 95 90 71 64 45 72 134 122 126 135 140 134 130 127 128 132 134 128 126 129 127 126 127 130 131 133 133 134 134 132 129 126 122 119 117 115 112 109 107 106 103 101 98 98 100 101 103 104 105 108 108 107 107 108 108 105 102 100 95 92 90 84 81 79 78 78 81 86 91
262 281 266 254 254 258 258 223 250 254 243 255 252 259 265 262 253 253 260 267 291 67 80 69 54 57 113 119 118 114 79 60 77 90 122 118 111 124 141 135 127 128 130 129 128 127 129 133 130 129 131 132 133 133 135 137 135 133 129 126 123 121 120 118 116 113 111 108 106 103 101 101 103 104 104 105 106 108 108 108 109 112 111 109 107 101 94 92 90 86 84 83 82 83 85 88 96
264 280 264 241 238 243 253 236 241 252 247 254 255 255 253 257 258 251 254 256 287 74 96 94 96 32 115 125 111 103 81 68 91 99 124 116 102 127 144 130 116 119 121 121 124 127 133 137 134 133 133 134 137 136 138 137 133 131 129 127 126 124 123 122 120 118 116 113 110 106 104 103 106 108 107 106 108 109 109 109 110 113 113 111 108 100 93 92 90 87 83 84 85 87 90 93 105
264 274 267 246 229 225 239 244 241 253 254 260 261 257 251 246 253 267 273 248 74 36 109 101 111 20 32 89 62 77 68 48 81 82 106 107 115 141 139 121 109 113 117 119 123 127 136 140 136 135 135 137 139 139 139 136 132 132 132 131 129 127 127 126 123 123 121 116 112 109 108 108 108 109 110 111 111 109 108 108 108 108 111 111 107 101 96 93 90 86 83 84 85 90 93 98 111
265 268 264 252 246 226 227 244 241 245 250 262 262 267 277 267 257 258 268 262 84 301 268 104 112 74 55 48 37 57 25 358 25 30 35 61 103 130 125 112 111 116 119 121 128 132 139 142 138 139 141 142 141 142 141 138 136 136 137 134 132 131 129 126 123 121 118 116 113 113 113 113 113 113 114 113 112 108 106 108 108 106 108 110 107 102 97 94 92 87 86 87 88 92 94 104 115
256 259 251 243 260 270 245 241 242 241 237 249 263 273 282 282 277 262 266 283 92 271 221 112 109 91 83 59 58 42 17 106 29 28 47 69 92 100 101 110 120 127 131 135 141 140 144 145 143 145 147 148 147 145 145 143 142 141 139 135 134 133 130 127 122 118 115 115 115 118 120 119 118 118 118 116 114 112 111 111 111 110 109 109 106 102 97 93 92 89 88 89 90 92 96 112 120
248 244 231 224 250 268 253 248 249 256 248 248 259 269 275 278 279 283 297 315 127 252 176 117 111 101 89 75 70 22 27 95 101 102 111 112 109 105 111 123 130 135 140 146 149 146 148 148 148 150 151 153 151 149 149 148 145 142 138 136 138 135 133 130 124 120 117 117 118 120 124 125 124 123 122 121 120 118 118 117 116 114 111 109 108 104 99 95 91 88 88 87 89 91 101 117 125
246 247 235 219 225 234 243 253 247 253 256 253 255 262 272 278 278 282 290 287 255 227 107 101 102 98 68 71 81 8 52 84 112 124 126 129 124 124 133 137 136 134 138 148 153 152 150 151 154 155 155 156 154 153 154 151 146 142 140 140 139 137 135 131 126 123 121 120 121 122 125 129 131 129 125 123 122 122 124 123 120 118 116 116 113 108 103 98 92 88 87 86 88 94 107 121 128
237 240 249 236 231 230 234 245 245 245 251 253 251 258 270 275 293 293 274 264 254 150 102 104 87 93 82 79 90 42 72 88 112 120 124 128 129 136 142 143 139 133 136 147 153 154 153 156 158 157 158 158 157 157 156 151 147 144 142 142 140 138 134 131 129 127 125 123 122 123 126 129 131 131 129 126 124 129 131 125 121 122 121 120 117 111 106 100 93 90 87 86 90 99 113 125 130
228 229 242 244 238 245 243 243 250 248 250 256 257 259 267 260 256 279 287 279 269 102 111 121 87 93 94 84 81 46 71 95 110 118 127 129 136 143 145 145 144 141 142 146 150 154 156 157 157 157 159 158 157 157 155 151 147 145 143 142 140 138 134 132 132 130 127 123 122 124 127 129 129 129 130 129 131 137 135 126 123 125 124 123 120 115 108 102 96 92 90 89 94 107 119 127 130
228 221 236 248 241 246 253 250 255 263 261 260 261 255 256 261 248 248 261 275 359 65 74 80 73 89 87 76 65 52 77 101 114 126 134 137 143 147 146 145 146 148 148 148 148 153 152 152 154 155 158 157 156 155 153 149 146 144 142 141 139 137 134 133 133 131 126 123 122 124 129 131 127 126 128 131 137 139 133 128 127 126 126 126 122 117 112 106 100 95 92 92 97 112 125 130 131
244 227 222 238 246 245 256 261 256 265 264 253 254 249 242 279 279 261 251 244 75 67 52 72 126 101 83 72 46 77 87 91 115 129 135 141 146 147 148 145 146 148 147 145 146 148 144 145 151 152 157 155 153 155 152 149 147 144 143 141 138 136 133 134 134 129 124 122 122 126 130 130 128 126 129 132 135 136 132 130 128 126 128 128 124 121 116 110 103 97 92 93 99 115 128 132 132
248 246 236 235 249 252 258 267 258 252 260 250 247 252 220 237 257 264 262 169 98 90 73 71 136 101 88 86 89 103 101 108 139 137 137 143 148 148 148 148 147 144 142 143 142 142 139 142 147 148 155 154 153 154 154 153 150 147 146 143 141 139 137 137 134 130 126 124 124 125 126 129 131 129 132 136 131 130 134 135 131 129 131 131 128 124 119 113 106 98 94 94 100 115 130 136 135
245 251 254 252 256 265 262 257 258 252 259 250 241 267 211 234 272 290 316 73 78 85 77 33 58 94 94 98 106 143 139 136 143 152 158 149 148 146 146 148 145 140 140 141 135 133 135 138 140 143 154 155 155 156 158 158 155 153 150 148 147 144 142 140 136 133 129 128 126 123 124 128 133 135 135 137 134 129 136 141 136 134 134 133 131 127 122 115 109 102 97 97 102 114 128 138 137
244 257 255 259 259 260 260 256 264 266 262 255 199 10 346 274 332 59 48 54 69 68 70 43 44 90 118 129 138 197 162 144 144 156 165 147 138 139 142 142 141 135 133 134 129 134 140 138 139 145 154 158 160 162 163 162 163 159 155 154 150 149 146 145 141 136 135 133 128 125 125 127 134 139 135 137 140 134 139 145 140 137 136 135 135 130 124 118 113 108 100 98 102 109 120 132 131
234 262 262 260 263 256 256 255 258 261 254 281 262 83 290 263 101 83 55 61 82 64 66 59 55 93 119 130 156 182 158 144 147 150 140 130 121 123 130 135 139 132 131 134 126 137 152 151 151 153 157 161 165 166 167 168 168 165 160 158 155 154 151 150 146 141 142 138 133 129 126 129 131 132 130 129 130 129 139 148 143 139 139 139 138 132 126 123 119 113 102 97 102 108 111 119 121
230 249 265 262 257 252 255 248 242 265 266 30 284 252 267 252 116 94 83 79 82 72 71 78 82 100 114 128 142 150 149 143 143 136 124 125 121 122 130 136 141 134 135 140 128 137 160 164 158 157 160 163 166 168 171 172 170 168 164 162 159 159 156 154 151 148 148 144 138 127 124 127 121 121 123 120 122 133 144 148 145 141 144 143 138 134 130 127 123 119 109 101 103 110 111 113 114
243 232 249 262 255 248 255 254 238 284 303 358 305 306 281 261 99 83 88 91 96 88 84 89 91 102 114 124 133 141 146 139 135 131 131 143 145 144 151 149 150 145 140 145 137 141 162 169 162 159 162 166 168 167 171 175 172 169 167 165 164 163 160 158 156 153 151 148 141 128 127 126 121 124 125 124 133 146 149 148 148 145 146 144 139 138 136 133 127 128 125 114 109 110 111 112 111
247 249 240 250 255 253 257 275 272 289 309 332 311 293 278 338 69 31 71 103 119 104 100 96 97 114 123 129 138 143 141 135 137 143 153 160 153 151 158 156 157 156 149 155 149 147 164 168 162 160 164 170 167 163 172 179 173 170 170 169 168 167 164 163 161 158 155 152 146 140 143 137 132 133 128 132 143 149 150 149 150 147 144 141 141 142 140 136 132 133 135 133 129 121 115 113 108
230 245 250 249 252 263 279 315 309 309 316 322 299 282 320 30 62 141 111 132 136 120 115 108 115 128 135 146 146 146 141 141 142 147 162 162 153 153 159 160 161 163 159 165 160 158 170 166 157 161 167 169 165 165 174 178 175 173 173 173 173 171 169 169 168 166 165 170 165 153 154 150 143 143 142 144 148 151 152 151 150 145 143 145 147 147 143 141 138 139 141 146 151 146 139 139 129
217 224 246 258 259 273 284 264 270 300 324 310 292 296 65 44 40 53 324 188 136 119 117 117 132 136 139 146 139 147 142 138 136 144 170 165 159 157 156 161 162 163 162 168 169 167 171 166 157 162 171 171 170 171 172 178 178 175 174 177 177 175 175 173 173 174 173 180 182 166 159 152 148 153 152 147 146 152 151 149 150 146 147 151 149 144 144 146 143 144 150 155 162 164 160 170 175
233 245 247 258 268 274 256 236 256 334 310 281 289 335 88 82 53 25 11 345 60 104 111 113 131 140 144 133 130 164 136 118 124 138 175 174 158 149 144 153 162 164 163 168 173 172 170 168 162 163 173 173 173 176 176 182 181 177 177 178 179 177 179 175 175 180 177 178 175 169 167 153 152 156 148 144 143 147 152 150 150 151 154 156 151 149 155 155 151 162 181 162 159 178 181 183 167
238 261 251 258 275 275 251 250 295 36 276 273 308 35 101 104 93 48 42 28 26 70 105 113 124 133 138 126 143 193 123 113 131 144 168 178 157 147 141 151 169 169 166 168 170 172 170 172 166 160 170 173 177 186 181 183 183 180 179 180 180 177 182 180 178 181 179 178 166 164 168 156 156 156 149 153 149 150 157 156 158 164 169 173 166 168 182 183 166 169 192 182 146 152 158 152 140
226 262 257 250 272 286 298 302 331 347 267 278 305 263 114 99 94 73 60 47 41 45 75 101 109 115 118 126 168 199 109 125 158 148 153 165 157 150 149 155 169 170 167 170 169 170 171 176 171 163 171 173 187 199 180 179 186 182 181 184 185 183 186 185 181 181 180 178 167 162 165 160 162 162 158 161 159 161 168 171 175 178 186 193 181 178 187 190 175 157 169 170 147 143 143 138 134
212 254 251 219 245 264 276 288 299 296 273 273 273 262 99 102 112 90 75 62 61 53 67 92 104 109 107 138 171 178 102 141 163 139 137 155 156 146 149 158 166 168 168 172 169 162 164 172 172 172 178 174 187 199 177 181 186 183 187 185 188 192 190 186 178 179 180 169 163 168 166 162 164 167 164 164 167 169 175 184 183 185 195 199 190 188 182 170 169 155 147 144 139 140 137 132 134
207 240 253 246 235 241 250 257 266 268 261 261 265 209 110 121 137 112 111 95 71 81 88 92 104 109 109 111 121 254 265 161 149 143 136 152 154 138 144 160 167 170 173 175 169 156 155 165 171 176 178 170 168 174 175 184 180 181 186 177 184 193 188 189 178 171 178 170 166 174 173 168 166 170 169 165 168 170 178 187 185 187 192 192 190 186 172 155 156 151 142 138 135 133 133 135 135
236 244 260 280 273 258 247 251 260 271 273 271 280 217 125 144 169 136 121 114 116 108 95 95 104 108 109 106 121 178 244 281 183 149 138 159 161 146 145 158 173 177 174 170 162 153 160 171 175 177 177 172 164 165 175 177 175 178 175 167 176 175 163 183 180 171 183 185 179 174 173 170 160 165 172 166 163 165 178 185 183 187 187 192 195 177 158 155 154 146 139 139 142 139 140 144 140
291 266 275 257 266 269 246 241 253 272 274 258 274 238 141 159 183 129 125 133 141 120 102 103 100 102 113 126 150 168 134 251 262 160 132 184 171 153 152 165 180 180 168 163 158 158 173 180 176 174 173 174 167 154 159 166 172 175 165 159 162 152 143 169 187 191 190 188 181 172 174 172 154 159 173 166 164 164 172 182 188 186 183 193 198 178 164 167 160 144 133 130 139 144 143 147 152
264 265 284 259 249 254 245 242 249 249 254 244 246 241 171 157 148 124 128 138 140 129 110 97 85 90 113 133 145 158 134 146 230 209 175 193 180 158 156 166 176 170 162 164 164 166 174 176 170 171 173 173 166 150 151 161 169 171 166 160 157 147 144 163 186 193 188 189 183 176 177 175 169 174 174 161 164 168 172 183 191 187 183 189 196 187 178 177 160 142 141 136 133 141 148 153 158
253 251 260 263 249 242 238 238 248 241 248 261 223 255 182 128 133 136 134 136 137 132 117 102 95 100 110 117 133 167 140 142 205 205 179 175 169 163 158 164 171 159 151 158 167 174 172 168 166 169 172 169 164 159 158 161 164 167 169 158 150 144 146 159 176 182 180 186 185 181 181 180 182 182 178 182 172 170 182 190 187 189 189 183 195 191 171 174 162 145 146 152 149 147 158 164 168
248 248 234 255 257 242 226 214 235 241 222 130 258 269 158 132 142 147 144 143 138 127 120 111 110 119 115 123 169 173 141 158 193 182 147 143 143 146 146 151 160 156 153 156 165 172 169 166 166 166 169 167 163 163 164 164 164 166 169 156 150 148 146 154 168 175 177 182 185 183 183 181 193 194 172 188 205 181 189 200 198 199 194 177 187 186 167 178 183 170 159 161 177 178 173 172 181
229 247 229 233 249 260 235 198 208 236 217 176 218 272 206 144 145 148 146 141 129 120 119 113 116 132 128 133 159 138 132 159 163 123 104 110 110 113 118 122 133 144 152 157 159 159 159 162 163 163 164 163 163 167 167 164 162 162 163 155 157 158 149 149 164 173 172 187 200 193 193 189 196 208 177 185 209 202 201 208 215 221 213 199 191 184 173 195 206 198 192 185 199 199 191 198 194
209 236 245 240 233 261 256 178 183 228 243 209 199 248 258 149 143 150 145 140 133 132 133 122 129 143 130 100 119 138 141 151 143 127 124 120 115 113 113 108 109 122 135 145 149 147 148 151 156 159 156 156 162 166 162 156 153 157 160 154 159 165 160 148 153 180 177 178 202 200 209 208 205 209 197 204 207 199 213 218 220 225 223 229 218 196 186 223 235 215 210 201 206 213 217 234 200
212 219 249 265 252 262 260 160 173 210 236 248 227 235 257 158 149 155 153 150 144 144 147 142 147 148 135 126 175 185 170 164 154 139 129 123 123 117 116 116 113 116 123 132 139 142 144 144 148 152 151 153 153 151 152 151 152 161 168 164 161 164 165 156 151 186 185 163 178 202 226 227 221 218 211 218 215 203 214 217 215 223 230 233 220 207 212 231 235 230 228 212 206 234 237 236 207
253 244 256 268 265 267 262 228 201 203 219 254 251 249 255 171 154 161 168 160 150 151 154 153 152 147 150 163 190 196 175 164 148 131 128 126 129 127 124 120 117 122 124 127 133 137 141 143 146 147 151 156 150 147 149 149 155 168 175 175 173 166 165 165 161 177 184 170 177 194 238 244 231 228 223 223 225 220 218 219 213 203 229 244 222 207 222 246 242 241 258 236 229 243 238 233 224
301 309 277 261 261 265 266 261 226 189 210 246 249 251 263 229 169 163 166 163 157 155 154 156 156 157 172 179 195 194 169 157 144 130 130 129 130 131 128 125 125 127 125 126 129 133 137 138 139 142 149 153 148 147 146 147 154 165 170 172 188 185 175 175 170 176 185 185 188 197 221 242 243 240 236 231 233 229 224 227 226 204 211 231 221 212 196 158 266 272 282 272 262 266 253 233 229
313 306 286 276 266 262 266 269 257 216 253 265 268 266 265 266 221 174 163 168 167 157 157 164 165 165 171 185 209 193 163 149 140 123 122 133 137 133 131 131 132 130 129 130 128 130 136 136 136 140 147 149 146 148 151 155 155 159 165 171 187 191 188 190 185 187 188 183 184 195 211 225 237 247 249 245 240 233 230 232 234 226 211 206 208 216 198 167 211 245 267 288 293 287 276 247 230
301 290 294 306 282 270 274 261 224 200 254 284 291 287 277 277 269 213 169 173 172 160 164 169 168 167 160 177 206 185 156 149 140 130 143 164 156 142 140 138 134 133 134 134 129 130 134 134 136 140 144 148 148 149 153 156 161 167 166 170 184 184 187 197 198 196 196 195 191 189 206 220 227 236 246 252 247 235 233 235 234 233 227 220 217 214 209 203 204 215 249 289 287 281 285 278 258
292 281 285 285 277 286 287 261 208 198 230 265 268 273 273 272 273 256 195 179 171 165 169 165 160 162 155 171 206 184 150 151 153 162 180 186 172 154 144 137 133 133 133 132 132 133 134 132 133 136 141 147 149 149 153 158 169 178 169 169 185 186 183 194 201 198 201 209 203 193 203 213 218 229 235 244 249 242 236 235 235 236 236 233 226 217 213 210 211 213 227 254 262 288 300 293 285
270 272 276 274 276 281 278 277 271 271 296 301 290 288 283 276 268 260 238 190 165 161 162 157 156 161 164 168 173 166 140 148 169 184 184 186 174 157 147 140 137 137 134 133 135 134 133 132 133 134 137 142 147 150 157 167 175 179 174 177 192 196 191 194 205 213 220 219 211 208 213 211 210 223 229 235 244 245 241 236 233 235 238 235 231 229 223 214 207 208 212 214 217 262 300 294 290
242 244 257 272 287 290 293 304 297 285 288 291 289 286 277 276 265 254 243 155 144 147 145 146 151 155 162 160 147 159 180 146 170 214 191 181 175 157 152 150 144 140 136 136 139 135 132 132 132 131 132 136 144 152 157 163 172 178 177 181 193 200 204 207 212 219 226 229 228 227 228 219 210 214 223 230 238 240 237 234 231 236 241 237 233 233 230 226 212 197 212 210 201 204 238 275 277
262 250 271 295 296 287 283 288 297 292 276 274 277 280 274 272 270 264 252 134 136 144 144 144 147 142 151 165 150 164 177 143 184 240 208 175 167 153 149 153 145 137 136 138 137 132 132 133 133 133 132 134 139 149 156 158 168 181 184 187 193 199 207 215 222 224 222 224 228 230 231 226 218 219 222 224 234 242 240 235 232 239 243 239 234 233 234 233 221 206 214 215 215 221 218 236 253
294 271 285 299 290 283 278 271 279 278 270 276 277 279 284 282 285 289 287 207 134 134 144 147 130 114 173 184 150 161 172 160 196 220 200 165 163 158 154 156 148 140 140 140 134 129 129 130 132 131 132 136 140 147 159 165 172 183 192 203 213 216 218 225 231 230 226 225 225 225 227 225 220 222 225 220 222 236 245 241 235 238 242 240 235 233 235 232 227 226 221 215 218 225 222 226 245
296 307 322 303 295 297 305 294 274 275 280 277 265 265 270 271 277 279 277 261 156 139 153 156 142 178 219 179 140 187 212 190 200 202 181 164 170 168 160 154 148 145 145 143 138 134 131 132 134 133 132 135 142 152 161 178 191 193 201 214 228 237 241 246 246 235 228 228 226 224 227 227 222 222 227 226 221 226 239 241 236 237 241 240 237 234 236 231 225 229 227 223 222 222 226 233 243
263 298 314 318 320 306 300 290 275 278 280 271 263 265 268 262 261 257 271 272 197 149 155 159 157 182 189 161 156 184 232 243 221 194 175 178 180 174 163 151 146 150 149 146 142 138 137 137 138 140 140 143 153 163 173 197 217 225 226 228 232 241 248 252 254 244 228 226 228 227 228 232 231 228 229 229 225 225 231 233 232 235 239 238 236 234 237 234 225 226 226 225 228 230 231 234 240
298 315 309 311 310 287 276 272 272 275 268 267 267 263 261 267 267 258 281 299 243 144 154 159 161 182 175 163 173 172 187 228 221 192 179 183 186 180 164 151 151 155 154 148 144 142 141 137 140 146 147 152 162 170 188 207 223 239 244 246 244 244 251 253 255 252 238 234 236 232 231 238 237 234 234 232 227 225 228 230 230 231 233 234 235 235 236 235 228 227 230 228 230 234 233 234 240
319 319 300 289 280 268 262 259 265 270 261 261 266 267 267 265 266 257 254 271 253 168 162 163 168 181 169 161 175 174 183 206 206 194 182 176 186 186 167 158 160 161 157 153 150 147 146 144 148 152 146 153 167 176 203 217 225 239 244 250 253 252 255 255 255 254 247 240 239 236 236 240 238 233 235 235 231 226 224 227 230 229 228 229 235 237 235 235 233 232 234 235 232 232 231 235 239
279 281 282 284 277 267 267 264 261 267 270 271 273 283 285 268 267 282 247 218 253 226 158 169 181 176 171 167 178 183 186 191 196 203 180 167 185 183 166 167 173 173 167 164 160 155 157 155 153 162 163 165 181 193 215 230 231 241 248 252 258 262 263 260 256 256 255 250 246 245 242 239 237 234 234 234 235 233 225 224 227 227 226 227 231 234 233 232 234 234 235 238 235 230 230 231 232
243 248 262 274 277 279 274 269 263 257 261 298 313 319 303 270 278 301 274 205 218 226 159 180 194 179 180 181 184 188 186 186 197 202 168 160 182 174 171 179 182 190 187 176 171 168 168 162 161 177 171 164 184 211 223 238 239 244 250 255 260 265 268 266 262 260 260 260 257 254 249 242 240 238 232 231 233 234 230 226 227 225 223 225 228 231 231 229 233 235 234 237 237 232 230 228 226
252 257 269 275 279 285 278 274 277 267 261 327 325 317 293 265 265 312 303 221 189 191 177 195 187 182 196 191 189 195 192 192 202 197 163 149 158 165 179 191 187 200 205 190 183 178 172 170 175 183 173 165 188 215 227 239 244 250 253 258 263 265 271 272 270 269 265 264 262 258 256 250 247 245 239 237 236 235 233 230 231 231 226 225 228 230 229 228 233 236 233 233 236 237 235 231 231
283 277 274 263 266 270 273 280 288 286 287 292 285 279 282 279 219 281 327 20 80 189 185 201 180 184 201 191 185 193 196 201 202 182 156 153 162 168 185 201 197 205 212 201 194 185 177 182 187 181 176 184 199 212 229 240 245 255 256 260 266 267 274 279 280 279 273 269 266 262 261 256 253 255 250 244 242 240 238 235 235 237 234 228 226 226 227 228 231 234 234 233 236 240 239 237 237
274 279 267 255 267 266 265 276 284 297 300 281 258 246 267 243 169 194 209 77 346 205 159 168 178 180 191 181 177 185 193 203 190 149 142 156 166 174 189 207 212 218 218 210 202 193 188 193 190 174 176 195 205 211 230 242 245 256 261 267 276 276 280 288 291 289 284 279 274 269 267 264 262 262 255 245 244 246 247 243 241 243 241 234 229 227 229 231 230 230 233 233 234 239 241 238 237
289 274 272 287 291 274 272 273 269 279 281 271 262 261 271 241 167 38 327 184 180 184 185 213 213 190 198 201 189 185 190 195 184 157 148 151 166 187 190 197 214 229 229 220 211 200 199 200 183 172 188 201 206 213 226 238 243 255 265 271 279 285 288 292 297 297 298 296 289 282 276 272 271 267 262 256 254 255 258 256 250 248 246 240 235 231 231 233 231 230 233 233 234 238 242 239 235
283 268 293 325 276 258 272 283 272 270 268 262 266 269 278 275 247 345 328 252 184 200 216 220 226 215 209 208 201 200 192 180 176 165 146 152 174 187 191 196 205 228 239 230 214 203 202 202 192 190 202 206 212 220 225 235 245 251 261 271 281 292 297 296 300 303 303 305 303 297 289 283 280 274 270 268 262 257 261 263 259 254 249 244 241 236 234 235 233 230 230 233 235 236 238 240 238
249 271 306 306 274 262 252 269 280 277 275 277 285 287 295 305 285 319 304 293 238 245 235 225 249 238 208 193 198 210 198 167 169 167 146 157 178 183 195 198 194 231 246 234 213 209 205 202 215 215 208 213 225 233 231 236 244 247 256 271 283 294 301 300 306 312 313 313 312 305 297 293 289 282 278 274 266 258 260 265 262 259 255 249 245 242 237 236 234 230 229 231 234 234 233 237 238
220 252 272 258 257 269 254 246 251 264 277 282 287 297 314 35 116 176 262 294 281 271 269 279 303 306 268 208 210 222 203 168 168 166 147 158 179 189 199 197 194 222 237 230 213 216 202 187 210 224 222 228 232 234 238 241 242 244 255 268 285 296 298 299 307 314 319 319 317 314 309 305 298 290 285 280 272 264 264 268 267 265 264 259 255 250 241 236 234 233 231 228 228 230 230 233 234
217 232 254 254 254 270 272 260 253 258 275 280 282 291 289 121 133 172 186 187 218 246 258 261 269 271 262 244 233 237 207 179 182 171 146 150 180 204 213 216 216 219 222 217 211 216 201 187 200 217 225 226 223 227 231 228 223 228 250 275 294 301 297 297 301 307 312 315 321 327 326 322 318 310 301 290 281 276 272 271 270 269 269 268 264 257 247 240 237 238 237 233 230 229 229 230 230
253 240 247 258 259 274 283 270 267 267 270 279 286 293 282 161 181 203 192 192 219 239 248 252 254 256 263 257 246 253 157 158 181 164 152 158 178 201 214 223 227 220 208 205 207 211 211 201 200 215 228 227 221 222 220 208 195 204 251 284 298 303 299 298 298 303 309 312 322 331 333 333 331 327 320 307 299 295 287 281 280 276 272 272 269 263 253 242 236 235 235 233 230 228 228 229 229
Height
767 768 766 768 766 767 765 763 781 777 775 789 778 773 762 745 743 742 740 732 730 727 721 726 731 734 743 753 759 761 763 767 773 781 791 784 776 780 780 779 779 782 787 790 793 795 798 799 800 800 802 802 803 804 804 805 805 805 805 805 805 806 806 806 806 806 806 806 807 807 808 809 811 813 816 817 818 820 820 821 821 822 823 824 825 826 826 826 826 826 826 826 826 826 826 826 826
767 768 766 768 765 769 767 762 787 786 782 793 774 765 755 740 743 744 739 732 731 727 724 728 732 735 740 747 751 759 766 764 765 771 774 773 777 781 781 783 780 781 786 790 793 796 799 800 800 801 802 802 803 805 806 806 807 807 806 807 807 807 808 808 808 807 808 808 808 808 809 810 812 814 816 818 819 821 822 822 823 824 825 825 826 827 827 828 827 827 827 827 827 827 827 827 827
767 768 766 768 764 766 765 766 786 791 791 792 773 756 746 745 744 736 729 724 722 721 726 730 735 739 741 752 754 762 772 766 764 768 770 774 778 782 783 785 785 786 789 793 796 797 800 800 801 801 802 803 804 805 807 808 808 808 808 808 809 809 809 809 809 809 809 809 808 809 810 811 813 815 817 819 821 822 823 823 824 825 826 826 827 828 828 829 828 829 828 828 828 828 828 828 828
767 767 765 765 765 766 771 777 781 786 791 784 772 752 739 744 737 730 723 716 717 720 727 732 741 741 743 760 757 762 780 772 767 771 775 778 780 782 784 785 787 789 792 795 798 799 800 800 801 801 803 804 804 806 807 808 809 809 809 810 810 810 811 811 811 811 810 809 809 810 811 813 814 816 818 820 822 823 824 825 826 826 827 827 828 829 830 830 830 830 829 829 829 829 829 829 829
767 767 765 763 768 768 770 778 775 782 787 775 768 751 736 736 730 729 721 713 718 725 728 733 746 745 747 761 759 775 792 780 776 781 784 786 786 786 787 788 789 791 794 795 798 799 799 800 801 802 803 804 804 806 807 808 809 810 811 811 812 811 812 812 812 811 810 809 810 811 812 814 815 817 819 821 822 823 825 826 827 827 828 829 829 830 831 831 831 831 831 830 830 830 830 830 830
766 765 762 761 763 761 769 780 776 777 772 761 760 747 734 732 727 727 719 713 718 725 727 733 745 749 759 767 770 783 788 783 787 791 792 794 793 792 793 792 791 792 793 794 797 797 798 799 800 802 802 804 804 806 807 808 809 810 811 812 813 812 813 813 813 812 810 810 811 812 813 815 817 818 820 821 823 823 825 827 828 828 829 830 830 831 831 832 831 831 832 831 831 830 830 831 831
765 765 762 765 765 762 777 783 776 774 759 748 751 742 732 728 725 725 724 724 725 725 726 735 740 753 771 772 778 786 782 781 786 789 790 792 792 793 794 791 790 791 791 793 796 796 797 799 799 801 802 804 804 806 807 808 809 810 811 813 813 813 814 813 813 812 811 812 812 813 814 816 818 819 820 822 823 824 826 827 829 829 830 830 831 832 832 832 832 832 832 832 831 831 831 831 832
763 765 760 768 775 771 780 779 771 768 755 743 739 735 729 725 724 728 731 733 732 728 731 738 738 758 779 775 786 790 783 784 783 786 785 786 789 789 789 788 788 790 792 793 795 797 798 800 801 801 802 804 805 806 807 808 809 810 812 813 813 814 814 814 813 813 813 813 813 814 815 817 819 820 821 822 823 824 826 828 829 829 830 831 832 832 833 833 833 833 833 832 832 832 832 832 833
760 764 762 768 776 775 776 775 767 759 750 741 734 730 725 722 724 729 732 733 729 728 737 743 742 764 781 781 790 790 787 789 786 787 785 786 787 786 787 787 789 790 793 794 795 798 799 802 802 803 804 805 806 807 808 809 810 811 812 813 814 815 815 814 814 814 815 815 815 815 816 818 820 821 822 823 824 825 827 828 829 830 830 832 832 833 833 833 833 833 833 833 833 833 833 833 834
760 762 764 770 775 778 776 770 763 754 746 738 731 727 724 722 724 730 734 733 727 730 737 737 745 765 779 785 793 793 793 793 788 789 788 789 788 788 789 789 791 791 794 795 796 798 800 803 804 806 807 808 809 809 810 811 812 812 813 815 815 815 816 816 816 816 816 816 816 816 817 819 821 822 823 824 825 826 828 829 830 830 831 832 832 833 834 834 834 834 834 834 834 834 834 834 835
765 761 761 774 779 782 777 769 762 752 743 735 730 723 721 719 722 730 732 733 731 736 737 738 756 767 778 791 796 798 798 795 790 789 788 790 791 790 791 792 794 793 794 795 797 799 801 805 807 808 809 810 812 812 814 813 814 814 815 816 817 817 817 818 818 818 818 818 818 818 819 820 822 823 824 825 827 828 828 829 830 831 832 833 833 834 834 834 835 834 835 834 835 834 834 835 835
769 764 762 778 780 777 772 766 760 753 744 737 733 721 717 720 727 732 731 736 736 742 744 747 758 763 785 800 800 801 798 799 795 790 790 791 794 792 792 794 796 796 796 796 798 800 803 806 809 811 811 813 814 816 816 816 816 816 817 818 818 819 819 820 820 820 820 820 820 820 821 821 823 824 826 827 828 829 829 830 831 832 832 833 834 834 834 835 835 835 835 835 835 835 835 835 836
768 764 765 775 771 768 767 764 757 753 748 736 731 719 715 724 731 731 729 735 737 749 753 747 748 759 792 804 800 801 797 799 797 794 794 794 797 795 794 795 797 798 798 799 800 802 805 808 811 813 814 814 816 818 819 819 818 818 818 819 819 820 820 821 821 822 822 822 822 822 822 822 823 825 827 828 829 829 830 831 831 832 833 834 834 835 835 835 836 836 836 836 836 836 836 836 837
762 759 764 772 766 763 762 761 756 753 749 732 725 717 716 725 728 726 728 739 743 750 750 743 746 767 798 803 802 801 794 795 794 796 797 797 799 798 797 796 798 799 800 801 803 806 809 812 814 815 815 816 817 818 820 820 820 820 819 819 820 821 821 822 823 824 823 823 824 823 823 824 825 826 827 828 829 830 830 831 832 833 834 835 835 835 836 836 836 836 837 837 837 837 837 837 838
758 755 760 769 768 766 760 758 754 753 746 729 724 722 724 726 724 729 733 744 749 742 744 750 752 772 799 801 801 796 788 791 791 796 800 801 801 801 801 799 800 800 802 804 806 810 811 814 814 815 815 816 818 819 820 821 822 821 821 821 821 821 822 823 824 824 825 825 825 825 825 825 826 826 828 829 829 830 830 832 833 834 835 835 836 836 836 836 837 837 837 838 837 838 838 839 840
752 754 762 770 770 769 760 753 752 753 744 728 724 724 733 729 723 735 733 738 749 743 752 766 762 773 790 789 791 787 784 789 792 797 801 805 805 805 806 803 804 803 804 806 809 811 811 812 810 811 814 815 817 819 821 821 822 822 822 822 822 822 822 823 824 825 826 826 826 826 826 826 827 827 828 829 829 830 831 832 833 834 835 835 836 836 837 837 837 838 838 838 838 838 839 840 841
748 757 770 772 770 769 759 751 751 750 739 730 727 724 736 734 725 732 731 736 751 756 766 775 771 775 781 781 784 784 787 790 794 801 804 809 810 809 809 807 807 805 806 807 809 810 810 811 809 812 814 816 818 819 822 822 823 823 823 823 823 824 823 824 825 826 827 827 828 828 828 828 827 828 829 830 830 831 832 833 834 834 835 836 836 837 837 837 838 838 839 839 839 839 840 841 842
753 763 774 774 768 762 752 745 740 739 737 735 731 728 735 736 733 732 737 748 755 765 776 778 778 779 780 783 785 786 790 793 798 805 806 810 811 810 808 807 807 806 807 807 809 809 808 810 811 814 816 817 818 819 823 823 824 824 824 824 824 825 825 826 826 827 827 828 829 828 829 829 829 829 830 831 831 832 833 833 834 835 835 836 837 837 837 838 838 838 839 840 840 840 841 841 842
759 764 771 770 761 750 739 736 732 735 739 737 733 730 732 737 742 741 747 758 759 771 782 781 784 786 786 787 789 790 791 796 804 806 805 807 809 808 807 806 807 806 807 807 808 808 808 810 812 813 815 817 817 819 823 825 825 824 825 825 825 825 825 826 826 827 828 828 829 829 830 830 830 831 831 832 832 833 834 834 835 835 836 837 837 837 838 838 838 839 839 840 841 841 841 842 842
758 762 770 763 750 742 735 735 735 735 737 739 737 730 732 740 745 748 753 759 762 772 779 783 789 788 787 789 792 793 791 799 806 805 803 806 808 807 807 806 806 807 807 807 807 808 808 811 813 814 815 817 818 820 824 826 826 825 825 825 825 825 825 826 827 828 829 829 830 830 831 831 832 832 832 833 833 834 834 835 836 837 837 837 838 838 838 839 839 839 840 840 841 841 841 842 843
755 757 765 754 743 744 738 737 737 735 738 741 738 732 741 748 748 751 755 759 765 770 771 778 786 785 785 788 792 794 792 798 804 805 803 805 807 806 806 807 807 808 808 807 807 808 809 812 814 815 816 819 820 821 824 825 825 825 825 825 825 825 826 826 827 828 828 829 830 831 831 832 832 833 833 834 834 835 835 836 837 838 838 838 838 838 839 839 839 840 840 840 841 841 841 842 843
754 753 753 746 742 746 739 735 735 736 741 742 740 739 746 751 753 756 759 765 767 766 768 773 779 782 782 784 790 792 792 797 804 808 804 803 806 807 807 807 808 809 810 809 808 809 809 811 813 815 817 819 820 821 823 825 824 825 825 825 825 826 827 827 828 828 828 829 830 831 832 832 833 833 834 835 835 836 837 837 838 839 839 839 839 839 839 839 839 840 840 841 841 841 842 842 843
756 754 746 743 742 743 738 734 735 739 744 743 742 741 742 750 758 759 763 770 767 763 766 771 777 781 780 782 788 791 793 797 804 809 805 801 804 806 807 806 805 807 809 809 809 810 810 811 814 815 816 817 819 822 824 825 825 826 826 826 827 827 828 829 829 829 829 829 829 831 832 833 833 833 835 835 836 836 837 838 839 840 840 840 839 839 840 840 840 840 840 841 841 841 842 843 844
755 757 747 745 743 740 738 736 737 740 744 741 737 738 743 755 760 760 765 769 766 765 766 771 780 785 784 785 788 793 797 800 805 809 806 802 803 804 804 803 803 804 807 808 809 812 812 813 815 817 817 817 820 823 824 824 825 827 826 827 828 828 829 830 830 831 831 831 831 832 833 833 833 834 835 836 836 837 838 839 839 840 840 840 840 840 840 840 840 840 840 841 841 842 843 844 844
755 757 747 743 744 740 738 739 740 741 741 738 736 740 747 754 756 761 768 768 766 767 769 774 785 794 795 792 791 795 802 806 808 808 806 804 803 804 804 802 802 803 805 807 809 812 813 814 816 817 817 817 819 822 825 826 827 828 828 829 829 829 830 830 831 831 832 833 833 832 832 833 834 834 835 835 836 837 838 838 839 840 841 841 840 840 840 840 840 840 841 841 842 843 843 844 844
752 751 743 741 742 739 739 741 741 741 739 736 739 745 749 750 754 764 766 766 769 768 771 776 785 798 803 799 798 801 804 807 810 810 808 804 802 803 804 802 801 803 805 807 810 813 814 815 814 813 813 814 816 819 823 825 828 827 827 828 829 830 832 832 832 832 832 833 833 832 832 833 834 834 835 835 836 837 837 838 839 840 841 841 840 841 841 841 841 841 841 842 842 843 844 844 845
744 745 743 742 743 739 740 742 741 740 738 737 741 746 750 749 754 768 767 762 768 771 775 778 783 797 804 804 807 808 804 804 809 811 812 809 806 805 804 802 802 804 809 811 813 814 814 813 811 809 809 812 814 816 818 820 825 825 825 827 828 830 833 834 834 834 834 833 832 832 832 833 833 834 835 836 836 837 838 838 839 839 840 840 841 841 842 841 841 841 841 842 842 843 844 844 845
745 746 747 747 746 744 741 742 742 741 743 738 739 745 751 753 756 766 766 762 767 772 777 780 783 793 801 808 813 812 807 807 810 809 811 812 809 808 807 806 804 806 811 813 813 814 815 812 810 809 809 810 814 817 817 819 823 825 826 826 827 828 831 834 835 835 834 833 832 832 832 832 833 833 835 836 836 837 838 838 839 839 840 840 841 841 842 842 842 842 842 842 843 843 844 845 845
750 749 756 754 749 749 743 742 742 743 745 734 737 751 755 758 761 762 762 763 767 771 777 781 785 791 799 805 809 810 807 810 816 815 813 813 812 811 810 809 807 808 811 812 811 813 815 814 812 812 812 813 814 817 819 820 822 824 825 826 827 828 830 833 833 833 833 833 833 832 832 833 833 833 835 836 837 838 838 839 839 839 840 840 841 842 842 842 842 842 842 843 843 844 844 845 845
754 751 759 759 756 755 744 741 742 742 742 730 741 765 765 763 763 760 760 763 768 774 778 781 786 790 795 799 803 805 803 807 817 819 816 816 816 814 811 810 808 808 808 810 811 812 814 814 814 814 814 815 817 818 819 821 822 823 823 825 827 828 830 830 829 830 831 832 832 832 832 833 833 834 835 836 837 838 838 839 840 840 840 841 842 843 843 843 842 842 842 843 844 844 844 845 845
756 756 758 761 765 758 739 738 744 745 741 731 748 769 768 766 763 759 761 763 769 776 779 781 784 787 791 796 800 800 799 804 810 810 809 809 810 810 809 809 809 808 807 808 811 812 812 813 813 813 814 816 817 818 819 820 821 822 823 824 825 827 828 828 826 826 828 830 831 832 832 833 834 834 835 836 837 838 839 839 840 840 840 841 842 843 844 843 843 843 843 843 844 844 845 845 846
756 764 766 760 763 756 736 732 740 747 742 735 753 768 764 765 764 761 762 763 769 776 779 781 784 785 787 792 794 795 796 799 801 801 802 803 804 804 805 805 807 808 808 808 810 810 810 811 811 812 813 815 816 817 818 820 821 821 822 823 823 823 824 824 824 823 824 827 829 831 833 834 834 835 835 835 836 837 839 839 840 840 841 841 841 842 843 843 844 844 844 844 844 845 845 845 846
756 764 768 758 757 756 742 733 734 742 744 740 751 763 761 763 764 762 761 763 768 774 778 781 785 785 785 787 790 793 796 796 796 797 799 800 802 803 803 804 805 806 806 806 807 807 808 809 810 811 812 813 814 816 817 818 819 820 821 821 822 821 821 822 823 823 823 825 828 830 833 834 834 835 835 835 835 836 838 839 839 840 840 841 841 842 842 844 845 845 845 845 845 845 846 846 846
758 758 761 754 751 754 749 742 736 738 747 748 749 754 757 760 762 760 759 761 766 772 777 780 783 784 782 784 788 790 794 795 794 794 796 799 801 802 803 804 804 805 805 805 805 805 806 807 808 809 810 812 813 814 815 816 817 818 819 820 820 820 821 821 822 823 823 823 826 829 832 833 834 834 835 834 835 836 837 838 839 839 840 840 841 842 843 844 845 846 846 846 846 846 846 846 846
758 758 759 757 751 752 751 746 738 737 747 751 751 753 752 754 760 761 759 759 764 769 773 777 779 782 783 783 786 788 790 792 791 792 795 798 800 802 803 804 804 804 804 804 803 803 804 805 806 807 808 809 810 812 813 814 815 816 817 818 819 820 820 821 822 823 823 824 825 828 830 832 833 834 835 835 835 836 836 837 838 838 839 840 841 842 843 845 846 847 848 848 848 848 847 847 847
754 755 756 757 756 753 748 742 734 733 747 752 752 756 752 751 756 759 759 759 762 765 769 776 778 781 783 784 784 785 788 791 790 792 795 797 799 801 802 803 804 804 803 803 803 803 803 803 804 805 806 806 808 809 811 812 813 815 815 817 818 818 819 820 821 822 823 823 824 826 829 831 833 834 834 835 835 835 836 836 837 838 839 840 841 842 844 846 847 847 849 850 849 849 848 847 847
754 756 753 752 755 754 745 740 731 729 748 754 749 753 752 748 748 750 756 759 760 763 767 773 777 780 783 785 785 785 787 790 790 793 795 798 799 800 801 802 803 803 803 802 802 802 802 802 803 803 804 804 806 807 809 810 811 813 814 815 816 816 818 819 820 821 821 823 824 825 828 830 832 833 834 834 834 835 835 836 837 837 838 839 840 842 843 846 846 846 849 851 851 851 850 848 848
758 759 758 756 755 750 742 740 736 734 750 759 753 756 755 749 745 743 751 756 757 760 764 769 774 779 783 785 786 785 786 788 790 794 796 798 800 799 800 800 801 802 802 802 801 801 801 801 802 802 802 803 804 805 807 808 810 811 813 814 815 816 817 818 819 820 820 821 822 824 826 829 831 832 832 832 833 834 834 835 836 837 838 839 840 840 842 845 845 845 847 850 851 852 851 850 849
762 760 763 765 756 750 745 739 737 737 748 758 755 756 755 749 744 740 744 750 753 756 759 765 772 777 781 784 786 786 787 788 790 793 796 798 799 798 799 799 800 801 801 801 800 801 801 801 801 801 802 802 803 804 805 807 808 809 811 812 813 814 816 817 818 819 819 820 821 822 825 827 830 831 831 831 832 833 834 835 835 836 837 838 839 839 840 843 845 846 845 846 849 851 853 851 850
764 763 766 766 754 755 758 748 741 740 745 753 755 755 754 749 745 740 737 740 748 755 759 763 769 775 778 781 784 785 787 790 792 794 796 797 797 797 798 798 799 799 800 800 800 800 799 799 800 800 801 802 802 803 804 806 807 808 810 811 812 813 814 816 817 818 819 820 821 822 824 826 828 830 831 831 831 831 832 833 834 834 835 837 837 838 839 841 844 846 846 846 847 850 854 853 851
761 760 762 762 754 755 759 753 749 747 749 754 759 767 762 753 752 744 736 741 751 759 764 767 769 772 775 778 783 786 788 791 794 796 796 796 796 795 796 797 797 798 798 799 798 798 798 798 799 799 800 801 801 802 803 804 805 806 808 809 811 812 813 814 815 816 817 819 820 821 823 825 827 828 829 830 830 830 830 831 832 833 834 835 835 836 837 839 841 844 846 847 846 846 849 849 849
760 755 754 755 756 757 757 757 760 766 770 761 762 783 777 756 752 746 739 748 760 763 767 773 775 776 778 780 783 787 789 792 798 800 797 794 794 794 795 795 796 797 797 798 798 797 798 797 798 798 799 799 800 801 802 803 804 805 806 807 809 810 812 813 813 814 816 817 818 820 822 823 825 826 827 828 828 828 829 830 830 831 832 833 834 834 836 837 839 841 843 845 845 844 845 845 846
769 756 749 753 755 756 755 758 768 781 782 763 760 786 789 767 757 749 743 751 766 772 772 775 779 783 785 783 784 786 789 794 800 801 794 791 793 792 793 794 795 796 797 797 797 796 797 797 797 797 798 798 799 800 800 801 802 803 804 805 807 808 809 810 811 813 814 816 817 819 820 821 823 824 825 826 827 827 827 828 828 830 830 831 832 833 834 835 836 838 840 841 842 843 843 844 844
773 752 748 755 755 758 759 761 770 773 770 765 760 770 784 780 765 754 748 750 764 777 779 778 783 790 792 789 787 788 790 793 795 794 791 790 792 791 791 793 794 795 796 796 796 796 796 796 796 797 797 798 798 799 799 800 801 802 803 804 805 806 807 809 810 811 813 814 816 817 818 819 821 822 823 824 825 825 825 826 827 828 829 830 831 831 832 834 835 836 838 838 839 840 840 841 841
764 751 754 758 757 762 764 767 771 766 771 782 770 764 782 784 762 752 752 751 761 774 778 779 784 788 790 791 791 792 795 796 791 789 789 788 789 789 789 791 793 795 796 796 795 795 795 795 796 796 797 798 798 799 799 799 800 801 802 803 803 805 806 807 809 810 812 813 814 816 816 817 818 820 821 822 823 824 824 825 826 827 828 828 829 830 831 832 833 835 836 836 837 838 838 839 839
754 752 760 760 761 764 765 770 771 769 783 792 776 768 785 786 765 757 761 763 769 775 773 775 779 779 779 783 788 792 798 799 791 785 786 787 787 788 788 790 792 794 794 795 795 795 795 795 795 796 796 797 798 798 799 799 800 800 801 802 802 804 805 806 808 809 810 811 813 814 815 815 816 817 818 819 820 821 823 824 825 825 826 827 828 829 829 830 832 833 834 835 835 836 837 837 837
755 760 765 765 765 762 763 765 766 779 794 788 772 766 778 787 772 760 763 764 768 771 771 773 775 775 774 776 781 784 788 790 786 783 783 785 787 787 788 790 792 794 794 795 794 794 794 794 795 796 796 797 798 798 799 799 800 800 801 802 802 803 804 805 807 808 809 810 811 812 813 814 814 815 816 817 818 819 821 822 823 824 825 825 826 827 827 828 830 831 832 833 834 834 835 835 835
761 767 770 776 775 768 770 770 772 795 802 781 767 764 775 788 775 758 755 754 756 761 767 771 771 772 772 773 775 776 778 780 780 780 780 783 786 787 789 791 794 795 794 794 794 793 793 794 794 795 795 797 797 798 799 799 800 800 801 802 802 803 804 805 806 807 808 809 810 811 812 813 813 813 814 815 816 817 818 820 821 823 823 823 824 824 825 826 828 829 830 831 832 833 833 834 834
762 767 773 787 792 788 794 792 790 801 797 777 769 771 780 782 769 759 755 751 752 754 759 765 766 769 770 771 772 771 773 776 777 777 779 782 785 787 789 792 795 796 796 794 793 792 792 793 793 794 794 796 797 798 798 799 799 800 801 801 802 802 803 804 804 805 807 808 809 809 810 811 812 812 813 813 814 815 816 817 819 820 821 822 822 822 823 825 826 827 828 829 830 831 832 833 833
764 768 776 791 801 809 815 807 801 800 789 778 775 781 786 777 765 763 756 749 750 751 754 758 761 765 766 767 769 770 771 775 775 775 778 781 783 785 788 791 794 796 797 795 793 792 792 792 792 793 794 795 796 797 798 799 799 800 800 801 801 801 802 803 803 804 805 806 807 808 809 810 810 811 812 812 812 813 814 816 817 818 819 820 820 820 822 823 824 824 825 826 828 829 830 831 831
766 762 768 784 793 807 815 808 806 803 790 783 784 789 790 780 769 761 752 748 749 751 753 753 756 761 762 763 765 767 769 772 773 774 776 779 780 782 785 788 792 796 797 796 794 793 792 791 792 792 793 794 796 797 798 798 799 799 800 800 800 801 801 802 802 803 804 805 806 807 807 808 809 810 810 811 811 811 812 813 815 815 816 817 818 818 819 821 822 822 823 824 825 827 828 829 830
768 759 766 778 777 786 799 798 794 796 797 792 785 782 773 765 762 755 753 754 752 752 753 754 757 758 759 763 764 766 768 770 773 774 777 780 781 782 784 787 791 795 797 797 795 794 792 792 791 792 793 794 795 796 797 798 798 799 799 800 800 800 801 801 802 803 804 805 805 806 806 807 808 808 808 809 809 809 810 811 812 813 813 815 815 816 817 818 819 820 820 821 823 825 827 828 828
770 768 774 770 763 772 790 795 786 791 807 798 781 778 765 756 762 759 757 759 755 755 756 755 757 757 760 763 764 766 768 769 772 773 776 780 782 783 784 787 790 794 797 797 796 795 793 792 792 792 793 794 795 796 797 797 798 799 799 799 800 800 800 801 801 802 803 804 804 805 805 806 806 807 807 808 808 807 808 808 809 810 811 812 813 814 815 815 816 817 818 819 820 823 825 826 826
771 776 771 762 763 768 780 797 797 798 807 793 776 777 773 772 779 770 761 761 758 756 755 755 756 756 759 762 762 763 765 768 770 771 775 779 781 783 784 786 788 791 796 797 795 794 793 793 792 792 793 793 794 795 796 797 798 798 799 799 799 799 800 800 800 801 802 803 803 804 804 804 805 806 806 806 806 806 806 806 807 808 808 809 810 811 812 813 814 814 815 816 817 819 822 823 824
764 767 760 764 782 785 784 797 806 808 808 796 781 776 775 781 785 777 769 765 761 757 754 755 756 754 755 758 760 760 761 765 768 769 774 777 779 781 783 783 784 790 798 797 794 792 792 792 793 793 793 793 794 795 796 797 797 798 798 798 799 799 799 800 800 801 801 802 803 803 803 804 804 804 804 804 805 805 805 805 805 805 806 807 808 809 810 811 811 811 812 813 814 816 818 820 821
757 761 759 763 775 781 782 787 794 804 809 802 793 786 783 782 775 772 771 764 761 760 755 756 757 754 753 755 757 758 758 762 764 767 771 774 777 779 780 780 782 790 798 796 791 790 790 791 792 793 793 793 794 795 796 797 797 797 798 798 798 799 799 800 800 800 801 801 802 802 802 803 803 803 804 803 804 804 803 803 803 803 804 804 805 806 808 809 809 808 809 809 810 812 815 816 817
762 770 771 769 767 768 775 778 777 788 801 801 798 797 788 775 764 764 765 760 759 758 756 756 755 753 753 752 754 756 756 758 760 763 767 771 773 774 776 780 784 790 794 791 789 789 788 790 791 792 793 793 794 795 795 796 796 797 797 797 798 798 799 799 799 800 800 800 801 801 801 802 802 802 803 803 803 803 802 802 801 801 801 802 803 804 805 807 806 806 806 806 807 810 812 814 815
762 770 771 772 773 776 790 795 779 776 790 793 796 802 787 765 758 758 757 757 756 753 753 754 752 751 751 750 750 752 753 757 759 760 764 767 770 774 779 786 791 791 789 787 787 787 788 788 789 790 791 792 793 793 794 795 795 796 796 797 797 798 798 799 799 799 800 800 800 801 801 801 801 801 801 801 801 801 801 800 800 800 800 800 800 801 803 804 803 803 803 804 807 809 811 812 812